Home   Weather   Timmins   Past weeks

Flag for Canada Past Weather in Timmins, Ontario, Canada — Yesterday and Last 2 Weeks

Now
23 °F

Clear.


Feels Like: 16 °F
Forecast: 19 / 35 °F
Wind: 6 mph from Southeast

Location: Timmins

Current Time: Jan 17, 2017 at 9:03:59 pm

Latest Report: Jan 17, 2017 at 8:00 pm


Visibility: 15 mi

Pressure: 29.93 "Hg

Humidity: 93%

Dew Point: 21 °F

Location of TimminsLocation

Past Weather in Timmins — Graph

°F

Timmins Temperature Yesterday

Maximum temperature yesterday: 32 °F (at 12:00 pm)
Minimum temperature yesterday: 23 °F (at 2:00 am)
Average temperature yesterday: 28 °F

High & Low Weather Summary for the Past Weeks

 TemperatureHumidityPressure
High34 °F (Jan 11, 1:41 am)93% (Jan 3, 8:00 am)30.79 "Hg (Jan 3, 8:00 am)
Low-20 °F (Jan 7, 9:00 am)54% (Jan 13, 2:00 pm)28.94 "Hg (Jan 11, 1:00 am)
Average8 °F79%30.03 "Hg
* Reported Jan 2 7:00 pm — Jan 17 7:00 pm, Timmins, Weather by CustomWeather, © 2017

Note: Actual official high and low records may vary slightly from our data, if they occured in-between our weather recording intervals... More about our weather records

Advertising

Timmins Weather History for the Previous 24 Hours

Scroll right to see more
 ConditionsComfort  
Time TempWeatherWind HumidityBarometerVisibility
7:00 pm
Tue, Jan 17
25 °FPassing clouds.3 mph86%29.95 "Hg15 mi
6:00 pm28 °FPassing clouds.5 mph86%29.96 "Hg15 mi
5:00 pm30 °FPassing clouds.7 mph80%29.96 "Hg15 mi
4:00 pm32 °FPartly sunny.5 mph75%29.97 "Hg15 mi
3:00 pm32 °FMostly cloudy.7 mph75%29.95 "Hg15 mi
2:00 pm30 °FOvercast.6 mph80%29.98 "Hg15 mi
1:00 pm28 °FBroken clouds.8 mph80%30.01 "Hg15 mi
12:00 pm30 °FOvercast.10 mph80%30.04 "Hg15 mi
11:00 am28 °FOvercast.14 mph86%30.07 "Hg15 mi
10:00 am27 °FOvercast.9 mph93%30.10 "Hg15 mi
9:00 am27 °FOvercast.8 mph86%30.12 "Hg15 mi
8:00 am27 °FOvercast.9 mph86%30.13 "Hg15 mi
7:00 am27 °FOvercast.8 mph86%30.15 "Hg15 mi
6:00 am25 °FOvercast.7 mph93%30.16 "Hg15 mi
5:49 am25 °FOvercast.7 mph93%30.15 "Hg15 mi
5:00 am25 °FOvercast.8 mph93%30.16 "Hg15 mi
4:00 am25 °FOvercast.8 mph93%30.16 "Hg15 mi
3:00 am25 °FOvercast.6 mph93%30.17 "Hg15 mi
2:00 am27 °FOvercast.7 mph86%30.17 "Hg15 mi
1:00 am27 °FOvercast.6 mph86%30.18 "Hg15 mi
12:00 am27 °FOvercast.7 mph80%30.20 "Hg15 mi
11:00 pm
Mon, Jan 16
27 °FOvercast.6 mph80%30.20 "Hg15 mi
10:00 pm27 °FOvercast.6 mph80%30.21 "Hg15 mi
9:00 pm27 °FOvercast.6 mph86%30.22 "Hg15 mi
Weather by CustomWeather, © 2017

See weather overviewHow to use our weather pages